Weather History for Selawik, AK

Change the Weather History Date:

Tuesday, December 4, 2012

  Actual Average Record
Temperature  
Mean Temperature -20 °F -  
Max Temperature -16 °F 3 °F 35 °F (2002)
Min Temperature -23 °F -4 °F -40 °F (2003)
Degree Days  
Heating Degree Days 84    
Moisture  
Dew Point -26 °F    
Average Humidity 68    
Maximum Humidity 91    
Minimum Humidity 53    
Precipitation  
Precipitation 0.00 in - - ()
Sea Level Pressure  
Sea Level Pressure 30.23 in    
Wind  
Wind Speed 2 mph (NW)    
Max Wind Speed 6 mph    
Max Gust Speed -    
Visibility 9 miles    
Events      
Averages and records for this station are not official NWS values.
T = Trace of Precipitation, MM = Missing Value Source: NWS Daily Summary

Daily Weather History Graph

Daily Weather History Graph

Search for Another Location

Airport:

Trip Planner

Search our weather history database for the weather conditions in past years. The results will help you decide how hot, cold, wet, or windy it might be!

Date:

Astronomy

Dec. 04, 2012 Rise Set
Actual Time 11:53 AM AKST 3:07 PM AKST
Civil Twilight 10:17 AM AKST 4:43 PM AKST
Nautical Twilight 9:00 AM AKST 5:59 PM AKST
Astronomical Twilight 7:55 AM AKST 7:05 PM AKST
Moon 11:29 PM AKST (12/4) 1:41 PM AKST (12/4)
Length of Visible Light 6h 25m
Length of Day
3h 13m
Waning Gibbous, 68% of the Moon is Illuminated
Dec 4
Waning Gibbous
Dec 6
Last Quarter
Dec 12
New
Dec 19
First Quarter
Dec 28
Full

Hourly Weather History & Observations

Time (AKST) Temp. Windchill Dew Point Humidity Pressure Visibility Wind Dir Wind Speed Gust Speed Precip Events Conditions
12:16 AM -18.4 °F -28.9 °F -29.2 °F 58% 30.33 in 10.0 mi NE 3.5 mph - N/A   Clear
12:36 AM -18.4 °F -28.9 °F -23.8 °F 76% 30.32 in 10.0 mi NE 3.5 mph - N/A   Clear
12:56 AM -18.4 °F -28.9 °F -25.6 °F 70% 30.33 in 10.0 mi NE 3.5 mph - N/A   Clear
1:16 AM -18.4 °F -31.4 °F -27.4 °F 63% 30.33 in 10.0 mi NE 4.6 mph - N/A   Partly Cloudy
1:36 AM -18.4 °F - -20.2 °F 91% 30.33 in 10.0 mi Calm Calm - N/A   Partly Cloudy
1:56 AM -18.4 °F -28.9 °F - N/A% 30.32 in 10.0 mi North 3.5 mph - N/A   Clear
2:16 AM -18.4 °F -28.9 °F -29.2 °F 58% 30.31 in 10.0 mi NNE 3.5 mph - N/A   Clear
2:36 AM -18.4 °F - -20.2 °F 91% 30.31 in 10.0 mi Calm Calm - N/A   Clear
2:56 AM -16.6 °F - -29.2 °F 53% 30.31 in 10.0 mi Calm Calm - N/A   Clear
3:16 AM -18.4 °F -28.9 °F -22.0 °F 84% 30.31 in 10.0 mi North 3.5 mph - N/A   Clear
3:36 AM -18.4 °F - - N/A% 30.32 in 10.0 mi Calm Calm - N/A   Clear
3:56 AM -18.4 °F - -27.4 °F 63% 30.32 in 10.0 mi Calm Calm - N/A   Clear
4:16 AM -18.4 °F -28.9 °F -25.6 °F 70% 30.31 in 10.0 mi SE 3.5 mph - N/A   Clear
4:36 AM -18.4 °F - - N/A% 30.30 in 10.0 mi Calm Calm - N/A   Clear
4:56 AM -18.4 °F - -25.6 °F 70% 30.30 in 10.0 mi Calm Calm - N/A   Clear
5:16 AM -18.4 °F - -25.6 °F 70% 30.28 in 10.0 mi Calm Calm - N/A   Clear
5:36 AM -18.4 °F - -27.4 °F 63% - 10.0 mi North - - N/A   Clear
5:56 AM -18.4 °F - -23.8 °F 76% 30.28 in 10.0 mi Calm Calm - N/A   Clear
6:16 AM -18.4 °F - -29.2 °F 58% 30.27 in 10.0 mi Calm Calm - N/A   Clear
6:36 AM -18.4 °F - -25.6 °F 70% 30.27 in 10.0 mi Calm Calm - N/A   Clear
6:56 AM -18.4 °F - -27.4 °F 63% 30.26 in 10.0 mi Calm Calm - N/A   Clear
7:16 AM -18.4 °F - -29.2 °F 58% 30.26 in 9.0 mi Calm Calm - N/A   Clear
7:36 AM -18.4 °F -28.9 °F -25.6 °F 70% 30.26 in 10.0 mi SW 3.5 mph - N/A   Clear
7:56 AM -18.4 °F - -27.4 °F 63% 30.25 in 10.0 mi Calm Calm - N/A   Clear
8:16 AM -18.4 °F - - N/A% 30.25 in 10.0 mi Calm Calm - N/A   Clear
8:36 AM -18.4 °F - -25.6 °F 70% 30.25 in 10.0 mi Calm Calm - N/A   Clear
8:56 AM -18.4 °F -28.9 °F -27.4 °F 63% 30.24 in 10.0 mi West 3.5 mph - N/A   Clear
9:16 AM -18.4 °F -28.9 °F -25.6 °F 70% 30.24 in 10.0 mi WSW 3.5 mph - N/A   Clear
9:36 AM -18.4 °F -28.9 °F -25.6 °F 70% 30.23 in 10.0 mi SW 3.5 mph - N/A   Clear
9:56 AM -18.4 °F -31.4 °F - N/A% 30.23 in 10.0 mi SSW 4.6 mph - N/A   Clear
10:16 AM -18.4 °F -28.9 °F -29.2 °F 58% 30.22 in 10.0 mi SW 3.5 mph - N/A   Clear
10:36 AM -18.4 °F -28.9 °F -22.0 °F 84% 30.22 in 10.0 mi SSW 3.5 mph - N/A   Clear
10:56 AM -18.4 °F -28.9 °F - N/A% 30.22 in 10.0 mi SW 3.5 mph - N/A   Clear
11:16 AM -18.4 °F -28.9 °F -25.6 °F 70% 30.22 in 10.0 mi SW 3.5 mph - N/A   Clear
11:36 AM -18.4 °F -33.4 °F -25.6 °F 70% 30.22 in 10.0 mi SSW 5.8 mph - N/A   Clear
11:56 AM -18.4 °F -33.4 °F - N/A% 30.22 in 10.0 mi WSW 5.8 mph - N/A   Clear
12:16 PM -16.6 °F -29.3 °F - N/A% 30.21 in 10.0 mi West 4.6 mph - N/A   Clear
12:36 PM -16.6 °F -26.8 °F - N/A% 30.20 in 10.0 mi West 3.5 mph - N/A   Clear
12:56 PM -16.6 °F - - N/A% 30.21 in 8.0 mi Calm Calm - N/A   Clear
1:16 PM -16.6 °F - - N/A% 30.21 in 10.0 mi Calm Calm - N/A   Clear
1:36 PM -16.6 °F - - N/A% 30.21 in 7.0 mi Calm Calm - N/A   Clear
1:56 PM -16.6 °F - - N/A% 30.22 in 9.0 mi Calm Calm - N/A   Clear
2:16 PM -16.6 °F - - N/A% 30.22 in 8.0 mi Calm Calm - N/A   Clear
2:36 PM -16.6 °F - - N/A% 30.22 in 10.0 mi Calm Calm - N/A   Clear
2:56 PM -16.6 °F - - N/A% 30.21 in 9.0 mi Calm Calm - N/A   Clear
3:16 PM -18.4 °F - - N/A% 30.21 in 10.0 mi Calm Calm - N/A   Clear
3:36 PM -20.2 °F -33.5 °F - N/A% 30.20 in 10.0 mi NNE 4.6 mph - N/A   Clear
3:56 PM -20.2 °F -30.9 °F - N/A% 30.19 in 10.0 mi NNE 3.5 mph - N/A   Clear
4:16 PM -20.2 °F -30.9 °F - N/A% 30.19 in 10.0 mi NNE 3.5 mph - N/A   Clear
4:36 PM -22.0 °F -33.0 °F - N/A% 30.20 in 10.0 mi NE 3.5 mph - N/A   Clear
4:56 PM - - - N/A% 30.19 in 10.0 mi NE 3.5 mph - N/A   Clear
5:16 PM -22.0 °F -33.0 °F - N/A% 30.20 in 10.0 mi NE 3.5 mph - N/A   Clear
5:36 PM -22.0 °F - - N/A% 30.19 in 10.0 mi Calm Calm - N/A   Clear
5:56 PM -20.2 °F - - N/A% 30.19 in 10.0 mi Calm Calm - N/A   Clear
6:16 PM -20.2 °F - -29.2 °F 63% 30.19 in 10.0 mi Calm Calm - N/A   Clear
6:36 PM -22.0 °F - - N/A% 30.19 in 10.0 mi Calm Calm - N/A   Clear
6:56 PM - - - N/A% 30.18 in 10.0 mi Calm Calm - N/A   Clear
7:16 PM -20.2 °F - -29.2 °F 63% 30.19 in 10.0 mi Calm Calm - N/A   Clear
7:36 PM -22.0 °F - - N/A% 30.19 in 10.0 mi Calm Calm - N/A   Clear
7:56 PM -23.8 °F - - N/A% 30.18 in 10.0 mi Calm Calm - N/A   Mostly Cloudy
8:16 PM -22.0 °F - - N/A% 30.18 in 10.0 mi Calm Calm - N/A   Overcast
8:36 PM -22.0 °F - -29.2 °F 69% 30.18 in 10.0 mi Calm Calm - N/A   Overcast
8:56 PM -22.0 °F - - N/A% 30.18 in 10.0 mi Calm Calm - N/A   Overcast
9:16 PM -22.0 °F - - N/A% 30.17 in 10.0 mi Calm Calm - N/A   Overcast
9:36 PM -20.2 °F - -29.2 °F 63% 30.17 in 10.0 mi Calm Calm - N/A   Overcast
9:56 PM -20.2 °F - -29.2 °F 63% 30.18 in 10.0 mi Calm Calm - N/A   Overcast
10:16 PM -20.2 °F - -27.4 °F 69% 30.17 in 1.8 mi Calm Calm - N/A   Overcast
10:36 PM -18.4 °F - -25.6 °F 70% 30.17 in 2.0 mi Calm Calm - N/A   Overcast
10:56 PM -18.4 °F - -27.4 °F 63% 30.17 in 0.5 mi Calm Calm - N/A   Overcast
11:16 PM -18.4 °F - -25.6 °F 70% 30.18 in 0.5 mi Calm Calm - N/A   Overcast
11:36 PM -18.4 °F - -27.4 °F 63% 30.17 in 0.8 mi Calm Calm - N/A   Overcast
11:56 PM -18.4 °F - -25.6 °F 70% 30.16 in 0.5 mi Calm Calm - N/A   Overcast